Temperature
24 21 20 21 21 22 23 23 23 24 25 25 23 23 23 23 23 22 22 22 22 22 22 22 22 21 21 20 20 20 19 19 19 19 18 18 18 18 18 18 18 18 18 17
21 21 22 23 23 23 23 23 23 24 25 25 23 23 23 23 23 23 22 22 22 22 22 22 21 21 21 20 20 20 20 19 19 19 19 18 18 18 18 18 18 17 17 17
21 22 24 24 24 24 24 23 23 24 24 24 23 22 22 22 23 23 22 22 22 22 21 21 21 21 21 20 20 20 20 19 19 19 18 18 18 18 18 17 17 17 17 17
21 23 24 24 24 24 23 24 25 24 22 21 22 20 21 21 21 21 21 21 21 22 21 21 21 21 21 20 20 20 20 19 19 18 18 18 18 18 18 17 17 17 17 17
22 23 24 24 25 25 24 25 24 24 22 21 21 20 20 20 21 21 21 21 21 21 21 21 21 21 20 20 20 20 19 19 19 18 18 18 18 18 17 17 17 17 17 17
22 24 24 25 26 25 25 24 22 20 19 20 21 21 20 20 21 21 21 21 21 21 21 21 21 20 20 20 20 19 19 19 18 18 18 18 18 17 17 17 17 17 17 17
22 23 24 25 24 24 24 21 20 20 19 20 21 21 20 21 22 22 21 21 21 21 21 21 20 20 20 20 20 19 19 19 18 18 18 18 17 17 17 17 17 17 17 17
21 21 23 25 24 23 23 21 20 20 20 20 21 21 20 21 22 22 22 21 21 21 21 21 20 20 20 20 20 19 19 19 18 18 18 18 17 17 17 17 17 17 17 16
21 21 24 25 25 24 23 21 20 19 20 20 20 20 21 21 21 21 21 21 20 21 21 21 20 20 20 20 20 19 19 19 18 18 17 17 17 17 17 17 16 16 16 16
21 21 22 24 25 24 23 21 19 19 19 20 20 20 20 20 20 20 20 20 20 20 21 20 20 20 20 20 20 19 19 19 18 18 17 17 17 17 17 16 16 16 16 16
20 20 21 22 23 23 22 21 19 18 18 19 19 20 21 20 20 19 20 20 20 20 20 20 20 20 20 20 19 19 18 18 18 18 17 17 17 17 16 16 16 16 16 16
20 18 19 20 22 23 23 21 19 19 18 18 18 19 21 20 20 20 20 20 21 20 21 20 20 20 19 19 19 18 18 18 18 17 17 17 17 16 16 16 16 16 16 16
20 18 18 20 20 21 22 22 20 18 17 17 18 19 20 20 19 20 20 20 20 20 20 20 20 19 19 19 18 18 18 18 17 17 17 17 16 16 16 16 16 16 16 15
20 17 18 19 19 20 21 22 21 19 18 18 19 19 19 19 19 19 20 20 20 20 20 20 19 19 19 19 18 18 18 18 17 17 17 17 16 16 16 16 16 15 15 15
18 18 19 19 20 21 22 22 22 21 19 19 19 19 19 19 19 19 19 20 19 19 19 19 19 19 18 18 18 18 18 17 17 17 16 16 16 16 16 15 15 15 15 15
16 18 18 19 21 21 21 22 22 21 21 20 20 19 19 19 19 19 19 19 19 19 19 19 19 19 18 18 18 18 17 17 17 17 16 16 16 15 15 15 15 14 14 14
16 16 17 17 19 20 19 20 21 21 20 20 19 19 18 18 18 18 19 19 19 19 19 19 19 19 18 18 18 18 18 17 17 17 16 16 16 15 15 15 15 14 14 14
16 15 15 16 18 19 19 20 20 20 19 19 19 18 18 18 18 19 19 19 19 19 19 19 19 19 19 18 18 18 17 17 17 16 16 16 15 15 15 15 14 14 14 14
15 15 15 15 16 18 19 19 19 18 18 18 18 18 18 18 18 18 19 19 19 19 19 19 19 19 18 18 18 18 17 17 17 16 16 16 15 15 15 14 14 14 14 14
15 15 15 15 17 17 17 18 19 18 17 17 17 17 17 17 16 16 18 18 19 19 19 19 19 19 18 18 17 17 17 17 17 16 16 16 15 15 15 14 14 14 13 13
16 15 15 15 15 16 17 18 19 17 16 17 17 17 17 16 16 17 18 18 18 18 19 19 18 18 18 18 17 17 17 16 17 16 16 15 15 15 15 14 14 14 13 13
14 14 14 14 15 15 16 17 16 15 16 17 17 17 17 17 17 17 17 17 18 18 18 18 18 17 17 17 17 16 16 16 16 16 15 15 15 14 14 14 14 13 13 13
14 13 13 13 14 15 16 16 17 17 16 17 17 17 17 17 17 17 16 16 17 17 17 17 17 17 17 17 16 16 16 16 15 15 15 15 14 14 14 14 13 13 13 13
14 13 13 13 14 15 16 16 17 17 17 17 17 17 17 17 16 16 16 16 16 16 16 17 17 16 16 16 16 16 16 15 15 15 15 14 14 13 13 13 13 13 13 13
13 13 12 13 13 14 15 16 16 16 17 17 17 17 17 16 16 16 15 15 15 15 16 16 16 16 16 16 15 15 15 15 15 14 14 14 14 13 13 13 12 12 12 12
12 12 12 12 14 13 14 15 15 16 16 16 16 16 16 16 15 15 15 15 14 14 15 15 15 15 15 15 15 15 14 14 14 14 14 13 13 13 13 12 12 12 12 12
Wind_Speed
2 2 5 9 8 8 6 4 6 7 7 1 4 7 8 8 9 11 11 11 10 11 10 10 10 10 9 8 8 7 6 5 4 3 3 3 2 1 1 1 3 4 4 4
2 5 12 8 6 5 6 5 6 6 5 1 2 4 6 7 10 12 13 12 11 10 9 10 10 10 10 10 9 7 6 6 5 4 3 2 3 1 1 1 2 3 4 4
8 9 8 7 7 7 6 5 6 5 4 3 3 2 2 3 3 5 9 11 12 14 13 12 11 10 10 10 10 8 6 6 5 4 3 3 3 2 2 2 1 1 3 4
7 9 7 6 7 6 6 6 4 2 0 3 2 3 5 4 4 5 7 9 11 12 12 11 12 11 11 10 9 8 7 6 5 5 5 5 4 3 2 1 1 0 2 3
6 6 6 8 9 7 7 4 1 2 1 2 2 3 5 4 6 8 9 11 11 12 14 13 12 11 10 10 9 8 7 6 5 5 6 5 3 2 2 2 2 1 0 1
8 7 6 7 6 6 5 1 3 3 3 2 6 4 6 7 11 11 10 12 12 12 12 12 10 9 8 8 7 8 8 6 5 5 5 5 5 4 4 3 2 1 1 0
7 8 5 2 1 2 2 4 3 4 3 6 5 3 7 7 10 12 13 13 11 12 12 11 11 10 9 9 8 8 8 6 5 6 5 5 5 5 5 4 3 2 1 1
3 7 5 2 5 6 5 8 8 5 4 5 3 3 5 3 5 7 8 9 9 10 11 12 12 12 10 10 9 8 9 7 6 6 5 4 4 4 3 3 3 3 2 2
4 6 6 5 3 6 3 4 8 7 2 2 4 3 3 2 3 6 7 8 9 10 11 11 11 11 11 10 9 9 9 7 6 6 5 4 4 4 3 2 2 2 2 2
6 5 7 6 2 1 5 6 5 5 4 3 4 4 5 5 5 6 7 8 9 10 10 10 10 10 10 10 9 8 8 8 6 6 5 5 4 4 3 3 2 2 1 1
4 4 6 3 2 3 0 2 4 4 5 5 3 6 6 10 9 9 9 9 9 11 12 11 9 9 10 9 9 8 7 6 6 6 5 5 3 3 4 3 2 2 2 2
2 4 4 7 6 5 5 5 6 5 4 5 4 6 5 7 7 8 7 6 7 9 11 11 10 9 9 9 9 9 8 8 7 7 6 5 4 4 4 2 2 2 2 2
2 4 1 7 6 5 1 1 3 4 4 4 4 6 2 4 5 6 7 7 6 7 9 10 10 10 10 10 9 9 8 8 8 8 7 6 5 4 4 3 2 2 2 2
4 4 5 6 6 3 4 4 1 4 3 4 6 6 3 3 5 7 8 8 8 8 8 9 9 9 9 9 9 9 8 8 8 8 8 7 6 5 4 3 3 3 3 3
4 3 3 5 5 3 4 4 3 3 6 7 7 8 9 9 8 8 8 9 10 8 7 8 8 9 9 9 9 9 9 8 8 8 8 7 6 5 4 3 3 3 3 3
3 2 1 2 2 2 3 4 3 2 2 4 5 5 5 5 5 5 7 9 10 10 9 8 8 9 9 10 11 10 9 8 8 8 8 7 6 5 5 4 4 3 3 2
1 3 2 3 4 2 3 2 0 1 1 4 4 4 4 5 6 7 7 8 9 10 10 10 9 9 9 9 10 10 10 8 8 8 7 7 7 6 6 6 5 4 4 3
4 3 3 2 1 3 5 1 2 4 4 2 2 3 5 6 5 5 6 8 7 7 8 8 8 7 7 7 8 9 9 9 9 8 8 8 8 7 6 5 5 4 3 4
6 6 3 3 3 4 2 3 2 1 3 4 2 3 3 4 4 1 2 4 5 6 7 7 7 6 6 7 8 9 8 8 9 9 9 9 9 9 8 7 6 5 4 4
3 5 4 3 3 4 4 6 3 3 1 4 2 2 4 4 2 4 2 2 3 3 5 5 5 5 6 6 7 8 8 8 9 10 9 9 9 9 9 8 7 5 4 4
3 2 3 3 3 4 4 6 3 2 4 5 1 2 3 3 5 5 3 2 3 4 5 6 6 6 6 6 7 7 7 8 8 7 7 7 7 8 8 7 6 5 5 4
2 2 2 2 2 5 4 3 2 4 4 2 1 2 2 2 2 3 3 2 2 3 3 5 5 4 4 6 7 7 7 7 6 7 7 7 6 6 6 6 5 5 5 5
1 4 4 4 5 4 2 2 3 3 2 1 1 1 2 2 2 3 2 2 2 3 4 4 6 5 4 5 7 7 6 6 7 7 7 6 6 5 5 6 6 5 4 4
3 2 2 1 2 2 2 2 2 1 1 1 1 2 3 2 2 3 3 2 2 1 3 3 5 5 4 4 5 6 6 6 7 7 6 6 6 5 4 4 4 5 5 5
3 1 1 1 3 3 4 2 2 3 3 3 3 2 3 4 3 3 3 2 1 1 1 2 3 3 3 3 3 4 5 6 6 6 5 5 5 5 4 4 4 5 5 7
2 3 3 4 5 2 3 3 1 2 3 3 4 4 3 3 4 4 3 2 1 1 1 2 2 2 2 3 3 3 4 6 6 5 4 4 4 4 4 3 1 1 2 5
Wind_Direction
255 104 237 237 211 201 220 246 268 270 277 225 188 183 191 177 160 157 164 167 161 163 167 158 153 148 143 140 139 143 139 139 135 134 138 137 141 133 125 149 146 145 141 130
0 252 238 235 236 231 232 247 267 284 291 219 172 201 197 182 178 171 169 169 167 162 156 154 151 151 152 153 152 148 147 147 148 152 156 154 146 151 149 100 105 125 130 128
213 237 238 233 247 246 248 226 236 247 311 7 86 328 235 216 167 162 162 163 163 164 163 160 156 157 155 156 159 156 154 149 146 138 122 109 83 61 49 45 53 71 118 129
238 247 241 242 246 217 253 236 225 230 81 290 138 216 259 203 184 174 165 159 162 164 160 161 160 160 163 164 161 155 154 149 146 137 131 135 140 152 188 184 173 80 107 125
247 243 236 238 236 211 222 229 208 216 170 322 304 165 259 181 195 198 182 169 169 167 160 162 164 162 163 163 163 160 152 149 145 144 145 143 144 157 150 126 121 117 111 142
251 255 225 226 240 210 185 84 9 34 76 265 249 185 243 207 203 195 182 170 169 166 160 160 158 152 151 151 156 156 151 154 152 148 144 145 146 141 132 133 141 168 205 204
297 288 269 234 256 292 123 103 29 354 355 253 257 192 242 232 200 189 180 173 170 165 159 155 154 160 161 158 161 160 155 157 158 152 152 153 150 147 151 160 168 170 174 188
252 283 272 245 193 204 208 153 162 192 222 272 296 234 266 252 181 168 163 161 164 166 165 164 166 165 164 164 164 160 160 161 164 160 160 155 149 148 155 163 168 172 183 192
198 258 281 281 232 164 181 185 172 149 188 240 273 277 318 352 124 148 152 156 171 176 171 171 168 164 162 161 163 161 155 153 156 158 150 142 143 142 148 155 155 163 177 171
178 249 281 285 328 352 168 161 103 125 161 235 267 240 217 219 193 173 167 175 181 181 176 172 167 165 162 162 160 156 156 156 150 148 152 149 144 142 140 134 146 149 164 149
161 194 296 336 215 225 101 112 119 135 159 166 236 263 225 201 189 181 186 183 176 177 175 171 167 164 159 157 158 160 157 152 152 154 152 145 143 142 138 140 150 146 129 119
173 146 260 267 257 218 175 173 149 158 210 169 178 260 274 185 177 170 178 183 170 171 173 167 162 158 158 162 163 163 163 163 165 159 152 150 147 144 143 141 142 126 119 121
130 116 340 329 340 1 49 198 162 147 139 162 176 255 323 129 151 169 168 174 165 159 161 161 160 162 164 166 167 167 169 168 164 157 154 154 154 154 161 159 144 132 133 125
120 118 161 206 239 267 299 303 261 133 160 194 200 219 257 183 183 180 171 165 156 158 155 157 167 169 168 168 168 168 170 168 163 160 158 161 169 173 173 161 148 147 145 134
95 136 200 228 242 254 263 294 287 219 192 190 206 202 217 207 196 185 167 153 149 153 162 163 167 172 172 170 170 168 169 168 166 164 167 173 175 172 168 159 155 144 143 147
55 139 184 291 287 294 293 297 294 265 219 185 175 223 229 197 154 150 156 154 158 165 167 167 169 172 176 176 173 171 172 173 168 168 175 176 171 165 164 162 156 146 150 149
25 123 125 261 303 338 310 296 344 10 22 159 178 214 163 148 165 174 170 166 173 175 171 172 179 181 181 182 177 176 176 172 171 174 175 174 173 170 172 166 156 166 172 164
165 146 159 200 48 225 243 317 72 76 20 17 129 153 156 169 174 177 170 163 168 171 170 175 178 183 180 177 175 173 169 170 173 177 179 178 178 179 175 169 173 181 182 181
171 157 145 147 186 250 293 338 352 58 337 353 108 137 130 115 80 68 166 161 177 184 179 178 177 174 169 172 171 167 171 174 176 182 185 184 182 180 179 181 187 189 187 188
112 126 135 150 170 219 260 298 300 105 315 336 44 128 125 102 130 245 234 181 183 183 175 169 164 159 167 177 167 166 175 179 188 191 190 187 184 182 186 190 189 189 188 195
39 58 143 173 199 246 277 307 21 110 253 294 268 172 165 187 211 221 200 195 192 189 183 167 159 169 180 174 161 169 175 190 196 188 180 181 185 186 188 187 185 180 185 187
174 156 189 162 188 248 300 36 124 224 249 246 209 190 179 183 170 152 148 139 146 162 167 163 159 170 178 170 164 172 190 198 186 176 176 180 185 191 186 177 180 178 178 182
182 192 186 185 212 247 275 188 213 183 187 220 191 191 135 126 147 142 138 138 123 161 165 165 163 170 182 178 168 179 197 183 168 168 176 180 182 185 176 177 182 181 184 189
333 14 90 37 284 288 335 356 357 67 180 212 149 138 127 135 153 152 149 137 130 144 161 160 154 169 191 189 177 186 183 165 159 169 176 175 176 180 178 179 179 184 192 194
264 1 31 323 294 343 1 358 356 18 49 55 45 79 119 118 120 135 140 142 143 113 130 149 161 176 187 170 163 166 160 153 156 166 171 173 176 177 175 179 186 191 204 199
244 194 181 232 246 221 265 279 29 57 40 40 46 42 55 94 103 105 121 130 122 109 85 108 123 144 141 141 153 159 156 154 155 162 168 170 167 166 166 166 158 293 222 218
Height
1492 1499 1505 1500 1498 1500 1502 1505 1506 1498 1489 1492 1496 1498 1496 1496 1497 1499 1502 1504 1506 1509 1513 1516 1518 1520 1522 1524 1525 1526 1528 1529 1530 1532 1532 1533 1534 1535 1535 1536 1536 1536 1536 1537
1498 1501 1493 1490 1492 1495 1499 1504 1503 1496 1487 1491 1497 1498 1494 1495 1495 1496 1499 1502 1504 1508 1511 1514 1516 1518 1520 1522 1523 1525 1526 1528 1529 1530 1532 1532 1533 1534 1535 1535 1535 1536 1536 1536
1499 1492 1486 1489 1491 1495 1497 1501 1500 1498 1492 1490 1498 1506 1501 1496 1495 1496 1497 1499 1502 1505 1508 1512 1514 1516 1518 1520 1522 1524 1525 1527 1528 1529 1531 1531 1532 1533 1533 1534 1534 1535 1535 1535
1492 1485 1485 1488 1489 1490 1499 1489 1490 1493 1503 1509 1504 1523 1507 1499 1497 1496 1496 1498 1500 1503 1506 1510 1511 1514 1516 1518 1520 1522 1524 1526 1527 1528 1529 1530 1530 1531 1532 1533 1533 1534 1534 1534
1489 1482 1483 1486 1483 1483 1489 1484 1488 1492 1501 1510 1507 1518 1512 1500 1500 1496 1494 1496 1498 1501 1503 1507 1509 1511 1514 1517 1519 1521 1523 1524 1526 1527 1528 1529 1529 1530 1531 1532 1533 1533 1533 1533
1482 1476 1477 1477 1476 1477 1480 1485 1491 1498 1508 1522 1509 1514 1513 1500 1493 1491 1491 1493 1495 1499 1502 1505 1508 1511 1513 1515 1518 1520 1521 1523 1524 1526 1527 1527 1528 1529 1530 1531 1531 1532 1532 1532
1486 1478 1473 1472 1478 1478 1481 1500 1519 1522 1530 1524 1505 1507 1505 1487 1483 1483 1486 1489 1493 1496 1499 1503 1506 1509 1511 1513 1516 1518 1519 1521 1523 1524 1525 1526 1527 1528 1529 1529 1530 1530 1530 1531
1497 1494 1475 1471 1475 1481 1482 1493 1518 1530 1531 1521 1506 1508 1496 1481 1479 1481 1484 1488 1492 1495 1497 1500 1503 1505 1509 1511 1514 1516 1518 1520 1521 1523 1524 1525 1526 1527 1528 1528 1529 1529 1529 1530
1493 1490 1471 1467 1467 1472 1482 1490 1491 1509 1514 1521 1513 1501 1491 1481 1480 1481 1484 1488 1491 1493 1496 1498 1501 1504 1507 1509 1511 1514 1516 1517 1519 1521 1522 1524 1525 1526 1526 1527 1528 1528 1528 1529
1481 1488 1475 1468 1466 1469 1474 1481 1496 1508 1521 1526 1514 1506 1500 1487 1483 1481 1482 1485 1488 1491 1494 1497 1499 1502 1505 1507 1510 1512 1514 1515 1517 1519 1520 1522 1523 1524 1525 1525 1526 1526 1527 1527
1476 1487 1481 1474 1474 1477 1478 1483 1491 1503 1508 1520 1523 1510 1480 1479 1477 1478 1479 1481 1484 1488 1491 1494 1497 1500 1503 1506 1508 1511 1513 1514 1515 1517 1519 1520 1521 1522 1523 1524 1525 1525 1525 1525
1474 1485 1491 1480 1468 1465 1470 1477 1488 1503 1508 1508 1514 1505 1472 1473 1474 1475 1477 1479 1482 1485 1488 1491 1494 1498 1501 1503 1506 1508 1511 1512 1514 1515 1517 1519 1520 1521 1522 1522 1523 1523 1523 1524
1472 1486 1497 1491 1483 1473 1472 1473 1478 1487 1498 1506 1511 1500 1473 1472 1474 1475 1476 1479 1481 1484 1486 1489 1492 1495 1498 1501 1503 1506 1508 1510 1512 1514 1515 1517 1518 1519 1520 1521 1522 1522 1522 1523
1467 1483 1493 1498 1492 1481 1479 1474 1474 1483 1498 1500 1496 1489 1479 1476 1475 1475 1476 1478 1480 1483 1485 1488 1490 1493 1495 1498 1501 1503 1505 1508 1510 1511 1513 1514 1516 1517 1518 1519 1520 1520 1521 1521
1469 1482 1480 1479 1474 1472 1473 1473 1471 1476 1481 1488 1485 1482 1477 1473 1472 1473 1474 1476 1479 1482 1484 1486 1489 1491 1493 1496 1498 1500 1502 1505 1507 1509 1511 1512 1514 1515 1516 1517 1518 1518 1519 1519
1472 1479 1478 1478 1471 1470 1471 1469 1468 1470 1471 1474 1476 1478 1470 1470 1471 1473 1474 1475 1477 1479 1481 1484 1486 1489 1491 1493 1495 1498 1500 1502 1505 1507 1508 1510 1512 1513 1514 1515 1516 1516 1517 1518
1477 1480 1485 1487 1476 1473 1481 1472 1470 1470 1469 1469 1476 1475 1469 1470 1470 1471 1472 1473 1475 1476 1478 1481 1484 1486 1488 1490 1492 1494 1497 1499 1502 1504 1506 1507 1509 1510 1511 1513 1514 1514 1515 1516
1476 1481 1487 1488 1484 1492 1480 1467 1466 1469 1470 1468 1467 1468 1468 1468 1469 1470 1471 1472 1473 1475 1476 1478 1481 1483 1485 1487 1490 1492 1494 1496 1498 1500 1502 1504 1506 1507 1508 1509 1510 1512 1512 1513
1468 1476 1486 1491 1492 1485 1475 1469 1468 1472 1474 1469 1467 1467 1467 1469 1470 1471 1471 1472 1473 1474 1474 1476 1478 1480 1482 1485 1487 1489 1491 1493 1495 1497 1499 1501 1502 1504 1505 1506 1507 1509 1510 1511
1465 1470 1481 1487 1489 1491 1480 1468 1464 1468 1477 1469 1467 1467 1468 1469 1475 1473 1471 1471 1472 1472 1473 1474 1476 1477 1479 1482 1484 1486 1488 1490 1491 1493 1495 1497 1499 1500 1501 1503 1504 1506 1507 1508
1474 1476 1481 1485 1488 1483 1472 1465 1463 1479 1480 1470 1467 1467 1467 1468 1469 1468 1468 1469 1470 1470 1471 1472 1474 1475 1477 1479 1481 1483 1485 1486 1488 1490 1493 1495 1496 1497 1498 1500 1501 1503 1504 1505
1479 1481 1483 1485 1489 1486 1468 1466 1470 1473 1468 1467 1465 1466 1466 1465 1465 1465 1466 1467 1468 1468 1470 1471 1472 1473 1474 1476 1478 1479 1481 1483 1486 1488 1489 1491 1492 1494 1495 1496 1498 1499 1501 1502
1475 1476 1478 1479 1480 1471 1467 1467 1466 1466 1466 1464 1463 1463 1463 1463 1463 1463 1464 1465 1465 1467 1468 1469 1470 1471 1472 1473 1475 1476 1478 1480 1482 1484 1486 1488 1489 1491 1491 1492 1493 1495 1497 1498
1473 1471 1473 1474 1472 1468 1467 1466 1465 1465 1464 1463 1462 1462 1462 1462 1462 1462 1462 1463 1463 1465 1466 1466 1467 1468 1469 1470 1471 1473 1475 1477 1479 1481 1482 1484 1485 1486 1488 1489 1490 1491 1492 1493
1473 1472 1474 1475 1471 1468 1467 1466 1465 1464 1463 1463 1462 1461 1461 1460 1461 1461 1461 1462 1463 1463 1464 1465 1465 1466 1466 1467 1469 1471 1472 1474 1475 1477 1478 1480 1482 1483 1484 1485 1486 1487 1488 1489
1471 1472 1474 1475 1469 1469 1468 1466 1465 1464 1463 1463 1462 1461 1461 1460 1460 1461 1461 1462 1463 1463 1463 1463 1463 1464 1464 1465 1466 1468 1470 1471 1472 1474 1475 1476 1478 1479 1480 1481 1483 1484 1486 1486